Regional Weather Roundup
Issued by NWS

Home | Current Version | Previous Version | Text Only | Print | Product List | Glossary On
Versions: 1 2 3 4 5 6 7 8 9 10 11 12 13 14 15 16 17 18 19 20 21 22 23 24 25 26 27 28 29 30 31 32 33 34 35 36 37 38 39 40 41 42 43 44 45 46 47 48 49 50
000
ASUS44 KFWD 020001
RWRTX
NORTH TEXAS HOURLY WEATHER ROUNDUP
NATIONAL WEATHER SERVICE FORT WORTH TX
700 PM CDT SUN MAY 01 2016

NOTE: "FAIR" INDICATES FEW OR NO CLOUDS BELOW 12,000 FEET WITH NO
SIGNIFICANT WEATHER AND/OR OBSTRUCTIONS TO VISIBILITY.

TXZ118-119-020100-
DALLAS/FORT WORTH METROPLEX

CITY           SKY/WX    TMP DP  RH WIND       PRES   REMARKS
DFW AIRPORT    MOSUNNY   72  49  44 N14       29.96R
6HR MIN TEMP:  69; 6HR MAX TEMP:  74;

DALLAS LOVE    MOSUNNY   74  49  41 N10G21    29.95R
6HR MIN TEMP:  71; 6HR MAX TEMP:  76;

FTW MEACHAM    PTSUNNY   72  49  44 N10       29.97R
6HR MIN TEMP:  69; 6HR MAX TEMP:  75;

DAL-EXECUTIVE  SUNNY     73  48  41 NE10      29.94R
6HR MIN TEMP:  70; 6HR MAX TEMP:  75;

FTW-ALLIANCE   MOSUNNY   70  49  47 N10       29.98R
6HR MIN TEMP:  68; 6HR MAX TEMP:  73;

FTW-NAS-JRB    PTSUNNY   72  48  42 N14       29.98R
6HR MIN TEMP:  69; 6HR MAX TEMP:  75;

FTW-SPINKS     PTSUNNY   70  50  49 N10       29.97R
ARLINGTON      SUNNY     73  50  44 N12       29.96R
6HR MIN TEMP:  72; 6HR MAX TEMP:  77;

GRAND PRAIRIE  SUNNY     72  46  40 N13       29.97R
ADDISON        SUNNY     73  52  46 N14         N/A
MESQUITE       SUNNY     72  52  49 N9        29.95R
LANCASTER      DRIZZLE   72  48  42 NE9       29.95S
6HR MIN TEMP:  70; 6HR MAX TEMP:  76;

$$

TXZ091>094-102>105-117-120-121-131>134-020100-
NORTH CENTRAL TEXAS

CITY           SKY/WX    TMP DP  RH WIND       PRES   REMARKS
BRIDGEPORT     MOSUNNY   68  52  58 N13       30.02R
6HR MIN TEMP:  65; 6HR MAX TEMP:  73;

DECATUR        MOSUNNY   67  47  49 N7        30.00R
6HR MIN TEMP:  66; 6HR MAX TEMP:  71;

DENTON         SUNNY     69  50  50 N12       29.98R
6HR MIN TEMP:  67; 6HR MAX TEMP:  72;

MCKINNEY       SUNNY     70  52  52 N10       29.96R
6HR MIN TEMP:  69; 6HR MAX TEMP:  74;

ROCKWALL       SUNNY     70  52  52 NE9       29.94R
6HR MIN TEMP:  69; 6HR MAX TEMP:  73;

TERRELL        SUNNY     72  54  53 NE10      29.94R
6HR MIN TEMP:  71; 6HR MAX TEMP:  75;

WAXAHACHIE     PTSUNNY   71  52  51 NE6       29.95S
6HR MIN TEMP:  70; 6HR MAX TEMP:  74;

GRANBURY       CLOUDY    71  50  46 N6        29.99R
6HR MIN TEMP:  69; 6HR MAX TEMP:  74;

$$

TXZ083>090-098>101-113>116-127>130-139>142-154-155-020100-
WESTERN NORTH TEXAS

CITY           SKY/WX    TMP DP  RH WIND       PRES   REMARKS
WICHITA FALLS  CLOUDY    59  48  67 N17       30.06R
6HR MIN TEMP:  59; 6HR MAX TEMP:  69;

WF-KICKAPOO    CLOUDY    63  47  57 N13G28    30.07R
6HR MIN TEMP:  63; 6HR MAX TEMP:  70;

ABILENE        CLOUDY    62  45  53 N18G26    30.05R
6HR MIN TEMP:  62; 6HR MAX TEMP:  68;

ABILENE-DYESS  CLOUDY    61  46  57 NW17G25   30.05R
6HR MIN TEMP:  61; 6HR MAX TEMP:  67;

MINERAL WELLS  CLOUDY    70  49  47 N13       29.98R
6HR MIN TEMP:  67; 6HR MAX TEMP:  74;

STEPHENVILLE   CLOUDY    69  47  43 N7        30.01R
6HR MIN TEMP:  67; 6HR MAX TEMP:  73;

COMANCHE       CLOUDY    68  49  51 NE8       29.99R
6HR MIN TEMP:  66; 6HR MAX TEMP:  71;

BROWNWOOD      CLOUDY    68  46  45 N9        29.99R
COLEMAN        CLOUDY    67  45  45 N14       30.01R
6HR MIN TEMP:  65; 6HR MAX TEMP:  71;

$$

TXZ143>147-156>162-174-175-020100-
CENTRAL TEXAS

CITY           SKY/WX    TMP DP  RH WIND       PRES   REMARKS
WACO           MOSUNNY   73  51  46 NE13      29.92R
6HR MIN TEMP:  73; 6HR MAX TEMP:  77;

WACO-TSTC      SUNNY     72  54  53 NE9       29.93
WACO-MCGREGOR  SUNNY     73  54  51 NE12      29.93R
6HR MIN TEMP:  72; 6HR MAX TEMP:  77;

HILLSBORO      MOSUNNY   71  51  49 NE10      29.94S
6HR MIN TEMP:  70; 6HR MAX TEMP:  73;

CORSICANA      MOSUNNY   74  54  49 N10       29.93F
6HR MIN TEMP:  74; 6HR MAX TEMP:  78;

MEXIA          CLOUDY    72  55  56 N9G21     29.91S
6HR MIN TEMP:  71; 6HR MAX TEMP:  75;

HEARNE         PTSUNNY   74  60  62 N10       29.90R
6HR MIN TEMP:  73; 6HR MAX TEMP:  79;

CAMERON        MOSUNNY   74  59  59 NE7       29.90R
6HR MIN TEMP:  74; 6HR MAX TEMP:  78;

TEMPLE         SUNNY     72  56  57 NE13      29.92R
6HR MIN TEMP:  72; 6HR MAX TEMP:  75;

KILLEEN        SUNNY     71  55  57 NE15      29.92R
6HR MIN TEMP:  70; 6HR MAX TEMP:  73;

KILLEEN-SKYLRK MOSUNNY   72  56  57 N14       29.92S
6HR MIN TEMP:  71; 6HR MAX TEMP:  75;

FORT HOOD      SUNNY     71  55  56 NE10      29.91R
6HR MIN TEMP:  71; 6HR MAX TEMP:  74;

HAMILTON       CLOUDY    70  50  49 NE10      29.97R
6HR MIN TEMP:  69; 6HR MAX TEMP:  73;

$$

TXZ095>097-106>112-122>126-135>138-148>153-164>167-020100-
EAST TEXAS

CITY           SKY/WX    TMP DP  RH WIND       PRES   REMARKS
PARIS          SUNNY     72  50  46 N12       29.94S
6HR MIN TEMP:  72; 6HR MAX TEMP:  75;

SULPHUR SPRNGS SUNNY     72  55  55 N9        29.96S
6HR MIN TEMP:  71; 6HR MAX TEMP:  74;

MINEOLA        SUNNY     75  57  53 N6        29.93S
TYLER          SUNNY     77  57  50 N9        29.91R
6HR MIN TEMP:  77; 6HR MAX TEMP:  80;

LONGVIEW       SUNNY     78  61  55 N7        29.88S
6HR MIN TEMP:  76; 6HR MAX TEMP:  81;

PALESTINE      MOSUNNY   77  60  54 N10G16    29.90S
JACKSONVILLE   SUNNY     76  62  61 N7        29.90F
NACOGDOCHES    MOSUNNY   79  68  69 NE5       29.86S
6HR MIN TEMP:  77; 6HR MAX TEMP:  82;

LUFKIN         PTSUNNY   79  69  71 N6        29.85R
6HR MIN TEMP:  79; 6HR MAX TEMP:  83;

$$

SUPPLEMENTAL OBSERVATIONS (CENTRAL)

CITY           SKY/WX    TMP DP  RH WIND       PRES   REMARKS
$$

SUPPLEMENTAL OBSERVATIONS (WEST)

CITY           SKY/WX    TMP DP  RH WIND       PRES   REMARKS
$$

SUPPLEMENTAL OBSERVATIONS (EAST)

CITY           SKY/WX    TMP DP  RH WIND       PRES   REMARKS
$$

SUPPLEMENTAL OBSERVATIONS ARE A COLLECTION OF AUTOMATED INSTRUMENTS
THAT ARE MAINTAINED BY A VARIETY OF FEDERAL AND STATE AGENCIES.
CERTAIN ELEMENTS...SUCH AS HUMIDITY VALUES AND SUSTAINED WIND
SPEEDS...MAY BE APPROXIMATED.




USA.gov is the U.S. government's official web portal to all federal, state and local government web resources and services.